Aérodrome :
LOGIN :

S'inscrire | Disclaimer

   EN    FR    IT 

 










Légende :    VFR   VFR Marginal   IFR   IFR Intensif   IFR Très Intensif
Visi : 
Plafond : 
>= 8 km
>= 3000ft
5 à 8 km
1000 à 3000 ft
1500m à 5 km
500 à 1000 ft
800 à 1500m
200 à 500 ft
< 800m
< 200 ft
Symboles :   Orages  Brouillard  Fortes neiges  Fortes précipitations  Vent > 20 kt
SIGMETs :   Divers  Orages  Givrage  Turbulence  Onde Orograph.  Cendres Volcan.







- Altitude de l'aérodrome : 22 ft
- Code IATA : TUN


DTTA - Tunis Carthage

DERNIER METAR :
  • 181500Z 01014KT 9999 FEW030 31/19 Q1012

METARs EXPIRÉS :
  • 181430Z 02013KT 9999 FEW030 31/18 Q1012
  • 181400Z 03011KT 360V060 9999 FEW030 32/19 Q1012
  • 181330Z 03010KT 350V060 CAVOK 33/18 Q1012
  • 181300Z 03008KT 360V080 CAVOK 33/17 Q1012
  • 181230Z 05006KT 010V130 CAVOK 33/14 Q1012

TAF TAF DTTA
Valide du 18 à 12h jusqu'au 19 à 12h UTC


181100Z 1812/1912 01005KT 9999 FEW033
BECMG 1813/1815 02015KT
PROB30
TEMPO 1815/1818 -TS FEW026CB
BECMG 1818/1820 34005KT
Pas de NOTAMs connus pour ce terrain.



MET'MAP, la Météo Aéronautique d'un coup d'oeil ! - Copyright ORBIFLY Décembre 2007 - Disclaimer

ORBIFLY MET'MAP TEAM :

Programmation & Développement : Alexandra Zaïnal
Conception & Développement : Baudouin d'Aumeries
Co-Programmation & Développement : Marc-Olivier Méhu
Soutien technique & logistique : Manuel Goepfert

Contact : metmap@orbifly.com




SOURCES & CREDITS :

   NOAA